sat.trackr.live / text

‹ back to catalog

DONGPO 09

NORAD 54685 · 2022-167D

PAYLOAD ACTIVE UNKNOWN

§ Identity

Operator
Country
PRC
Launch date
2022-12-09
Launch site
SEAL
Launch vehicle
Mass (kg)
RCS (m²)

External: N2YO · Heavens-Above · Gunter

§ Orbital elements

Epoch: 2026-05-25T05:15:13.390272Z

Period
93.77 min
Inclination
97.6886°
Eccentricity
0.0002510
Mean motion
15.35746931 rev/d
Perigee alt
457.0 km
Apogee alt
460.4 km
Semi-major
6,836.8 km
B*
3.2880e-4
RAAN
315.2134°
Arg perigee
171.9263°
Mean anomaly
188.2021°
Rev number
19,192

§ Raw data

DONGPO 091 54685U 22167D   26145.21890498  .00011352  00000+0  32880-3 0  99902 54685  97.6886 315.2134 0002510 171.9263 188.2021 15.35746931191928

JSON: /api/v1/satellites/54685 · /tle

For live sub-satellite position, see the globe view (requires WebGL).

§ Visibility from observer

Set your observer location to see the next 7 days of passes ≥ 10°. The values pass through the URL so the page stays shareable.

No JS? Fill the form by hand. The geolocation button needs JavaScript.

§ Radio — SatNOGS DB

ModeDescriptionDownlinkUplink
FM Jillin Mysterious Pip 1.616 GHz

1 transmitter · refreshed weekly from db.satnogs.org